[[{"header":{"parameterUnit":"m.s-1","parameterCategory":1,"la1":30.2991,"la2":30.254,"lo1":-89.0895,"lo2":-89.0444,"dy":0.0017,"dx":0.0017,"nx":28,"ny":28,"refTime":"2024-03-01T03:00:00:Z","depth":0,"parameterNumber":2,"parameterNumberName":"U-component_of_WINDS"},"data":[0,0,0,0,0,0,0,0,0,0,0,0,0,0,0,0,0,0,0,0,0,0,0,0,0,0,0,0,0,0,0,0,0,0,0,0,0,0,0,0,0,0,0,0,0,0,0,0,0,0,0,0,0,0,0,0,0,0,-0.2726,-0.2727,0,-0.2763,-0.2763,-0.2764,-0.2787,-0.2787,-0.2788,-0.2788,-0.2826,-0.2827,-0.2828,0,0,0,0,0,0,0,0,0,0,0,0,0,-0.2678,-0.2678,-0.2726,-0.2727,-0.2727,-0.2763,-0.2763,-0.2764,-0.2787,-0.2787,-0.2788,-0.2788,-0.2826,-0.2827,-0.2828,0,0,0,0,0,0,0,0,0,0,0,0,0,-0.2705,-0.2679,-0.2726,-0.2743,-0.2745,-0.2763,-0.2763,-0.2764,-0.2787,-0.2787,-0.2788,-0.2788,-0.2825,-0.2826,-0.2828,-0.2832,0,0,-0.2832,-0.2832,0,0,0,0,0,0,0,0,-0.2703,-0.2707,-0.274,-0.2742,-0.2744,-0.2771,-0.276,-0.2787,-0.2787,-0.2771,-0.2788,-0.2788,-0.2807,-0.281,-0.2817,-0.2833,-0.2835,-0.2832,-0.2833,-0.2833,-0.2834,0,0,0,0,0,0,0,-0.2701,-0.2705,-0.2741,-0.2741,-0.2743,-0.2749,-0.2753,-0.2765,-0.2788,-0.2773,-0.2774,-0.2778,-0.2809,-0.2815,-0.2818,-0.2836,-0.2832,-0.2833,-0.2834,-0.2834,-0.2857,-0.2857,0,0,0,0,0,0,-0.2697,-0.2703,-0.274,-0.2742,-0.2724,-0.275,-0.2755,-0.2762,-0.2788,-0.2792,-0.2778,-0.2779,-0.2813,-0.2816,-0.2819,-0.2825,-0.2833,-0.2835,-0.2835,-0.2857,-0.2857,-0.2857,0,0,0,0,0,0,-0.2696,-0.27,-0.2738,-0.2723,-0.2729,-0.2751,-0.2759,-0.2763,-0.2769,-0.2792,-0.2796,-0.2781,-0.2813,-0.2817,-0.2828,-0.2826,-0.2835,-0.2836,-0.2857,-0.2857,-0.2857,-0.2836,0,0,0,0,0,0,-0.2694,-0.2699,-0.2701,-0.2723,-0.2729,-0.2746,-0.2759,-0.2763,-0.2772,-0.2773,-0.2795,-0.2799,-0.2814,-0.2826,-0.2829,-0.2828,-0.2837,-0.2858,-0.2857,-0.2857,-0.2837,-0.2836,-0.2834,0,0,0,0,0,-0.2692,-0.2694,-0.2701,-0.2705,-0.2732,-0.2746,-0.275,-0.2766,-0.2771,-0.2773,-0.2787,-0.2799,-0.2826,-0.2827,-0.2831,-0.283,-0.2858,-0.2857,-0.2857,-0.2838,-0.2836,-0.2834,0,0,0,0,0,0,-0.2671,-0.2697,-0.2705,-0.2714,-0.2728,-0.275,-0.2753,-0.2763,-0.2776,-0.2777,-0.2797,-0.2802,-0.2811,-0.2822,-0.2822,-0.2835,-0.2843,-0.2844,-0.2828,-0.2826,-0.2824,-0.2821,-0.2838,0,0,0,0,0,-0.2667,-0.2677,-0.2699,-0.2705,-0.2711,-0.2731,-0.2738,-0.2749,-0.2764,-0.2771,-0.2786,-0.28,-0.2812,-0.282,-0.2832,-0.2839,-0.2844,-0.2841,-0.2839,-0.2837,-0.2837,-0.2842,-0.284,-0.2855,-0.2855,-0.2855,0,0,-0.266,-0.2675,-0.268,-0.2701,-0.2713,-0.2723,-0.2736,-0.2745,-0.2753,-0.2772,-0.2783,-0.2795,-0.2812,-0.2821,-0.2826,-0.2831,-0.2835,-0.2837,-0.2836,-0.2836,-0.2841,-0.284,-0.2838,-0.2855,-0.2855,-0.2855,0,0,-0.2651,-0.2664,-0.267,-0.2682,-0.2699,-0.2712,-0.2714,-0.2735,-0.2743,-0.2754,-0.2769,-0.2778,-0.2798,-0.281,-0.2819,-0.2814,-0.2825,-0.2817,-0.2808,-0.2812,-0.2811,-0.281,-0.2808,-0.2807,-0.2817,-0.2817,-0.2817,0,-0.264,-0.2655,-0.2672,-0.268,-0.2689,-0.2706,-0.2712,-0.2723,-0.2744,-0.275,-0.2755,-0.278,-0.2793,-0.2805,-0.2804,-0.281,-0.2812,-0.2815,-0.281,-0.2809,-0.2808,-0.2807,-0.2806,-0.2816,-0.2816,-0.2816,-0.2817,0,-0.264,-0.2649,-0.2652,-0.2671,-0.268,-0.2688,-0.2706,-0.2713,-0.2723,-0.2736,-0.2747,-0.2763,-0.2779,-0.2782,-0.2793,-0.2796,-0.2798,-0.2806,-0.2814,-0.2806,-0.2804,-0.2804,-0.2815,-0.2815,-0.2815,-0.2816,0,0,-0.2619,-0.2647,-0.2648,-0.2656,-0.2677,-0.2685,-0.2693,-0.2708,-0.2714,-0.2728,-0.2735,-0.2751,-0.2759,-0.2768,-0.278,-0.2784,-0.2779,-0.2792,-0.2792,-0.2788,-0.2782,-0.2775,-0.2774,-0.2786,-0.2786,-0.2786,-0.2781,0,-0.2613,-0.2628,-0.2643,-0.2652,-0.2662,-0.2678,-0.2685,-0.2699,-0.2711,-0.272,-0.2734,-0.2745,-0.2754,-0.276,-0.2764,-0.2778,-0.2778,-0.2779,-0.2793,-0.2793,-0.2787,-0.2774,-0.2767,-0.2761,-0.278,-0.278,-0.278,0,-0.2608,-0.2621,-0.2631,-0.265,-0.2654,-0.266,-0.2675,-0.2684,-0.27,-0.2708,-0.2719,-0.2731,-0.274,-0.2748,-0.2761,-0.2762,-0.2768,-0.2776,-0.2776,-0.2778,-0.2786,-0.2775,-0.276,-0.2759,-0.2779,-0.278,-0.278,0,-0.2591,-0.2611,-0.2619,-0.2626,-0.2649,-0.2653,-0.2663,-0.2678,-0.2686,-0.2699,-0.2704,-0.2718,-0.2726,-0.2737,-0.2753,-0.2757,-0.2764,-0.2773,-0.2771,-0.2771,-0.2772,-0.2771,-0.2757,-0.2777,-0.2777,-0.2777,-0.2777,0,-0.2583,-0.2588,-0.2612,-0.2617,-0.2623,-0.2641,-0.2647,-0.2658,-0.2672,-0.268,-0.2696,-0.2703,-0.2724,-0.2733,-0.2746,-0.2755,-0.2758,-0.2765,-0.2768,-0.2764,-0.2763,-0.2768,-0.2768,-0.2776,-0.2776,-0.2776,-0.2776,0,-0.2565,-0.2581,-0.2591,-0.2612,-0.2617,-0.2621,-0.2639,-0.2645,-0.2657,-0.2667,-0.267,-0.269,-0.2702,-0.2719,-0.2736,-0.2745,-0.2751,-0.2757,-0.2746,-0.2748,-0.2745,-0.2745,-0.2733,-0.2732,-0.2752,-0.2752,-0.2752,0,-0.2559,-0.2563,-0.2584,-0.259,-0.2599,-0.2609,-0.2616,-0.2634,-0.2642,-0.2659,-0.2663,-0.2676,-0.2687,-0.2706,-0.2722,-0.2735,-0.2741,-0.2736,-0.2743,-0.2738,-0.274,-0.274,-0.274,-0.2734,-0.2734,-0.2734,-0.2733,0,-0.2545,-0.2553,-0.2563,-0.2576,-0.2585,-0.2596,-0.2608,-0.2612,-0.2632,-0.264,-0.2652,-0.2661,-0.2678,-0.2691,-0.2707,-0.2717,-0.2729,-0.2731,-0.2731,-0.2726,-0.2719,-0.2722,-0.2741,-0.2731,-0.2731,-0.2732,-0.2732,-0.2732,-0.2533,-0.2537,-0.2552,-0.2563,-0.2574,-0.2585,-0.2591,-0.2604,-0.2614,-0.2629,-0.2639,-0.265,-0.2666,-0.2688,-0.2698,-0.2707,-0.2712,-0.2712,-0.2712,-0.2712,-0.271,-0.2718,-0.271,-0.271,-0.271,-0.271,-0.271,0,-0.2519,-0.253,-0.254,-0.2556,-0.2564,-0.2574,-0.2587,-0.2594,-0.2604,-0.2617,-0.2628,-0.2641,-0.2654,-0.2671,-0.2684,-0.2689,-0.2694,-0.2692,-0.2691,-0.2693,-0.2705,-0.2703,-0.2687,-0.2687,-0.2687,-0.2687,-0.2687,-0.2687,-0.2514,-0.2521,-0.253,-0.2544,-0.2554,-0.2565,-0.2572,-0.2582,-0.2593,-0.2607,-0.2617,-0.2628,-0.2643,-0.2657,-0.2669,-0.2674,-0.2678,-0.2674,-0.268,-0.269,-0.2693,-0.2695,-0.2693,-0.2674,-0.2674,-0.2667,-0.2667,-0.2667]},{"header":{"parameterUnit":"m.s-1","parameterCategory":1,"la1":30.2991,"la2":30.254,"lo1":-89.0895,"lo2":-89.0444,"dy":0.0017,"dx":0.0017,"nx":28,"ny":28,"refTime":"2024-03-01T03:00:00:Z","depth":0,"parameterNumber":3,"parameterNumberName":"V-component_of_WINDS"},"data":[0,0,0,0,0,0,0,0,0,0,0,0,0,0,0,0,0,0,0,0,0,0,0,0,0,0,0,0,0,0,0,0,0,0,0,0,0,0,0,0,0,0,0,0,0,0,0,0,0,0,0,0,0,0,0,0,0,0,-0.0492,-0.049,0,-0.0292,-0.029,-0.0287,-0.0212,-0.0213,-0.0214,-0.0214,-0.0003,0.0003,0.0009,0,0,0,0,0,0,0,0,0,0,0,0,0,-0.0804,-0.0799,-0.0492,-0.049,-0.0487,-0.0292,-0.029,-0.0287,-0.0212,-0.0213,-0.0214,-0.0215,-0.0006,0.0002,0.0009,0,0,0,0,0,0,0,0,0,0,0,0,0,-0.0643,-0.0797,-0.0493,-0.0427,-0.0419,-0.0293,-0.0289,-0.0286,-0.0212,-0.0213,-0.0214,-0.0215,-0.0008,0.0001,0.001,0.0087,0,0,0.0039,0.0043,0,0,0,0,0,0,0,0,-0.0652,-0.0632,-0.0439,-0.0431,-0.0422,-0.0278,-0.0322,-0.0161,-0.0212,-0.029,-0.0214,-0.0215,-0.0094,-0.0077,-0.0038,0.0097,0.0106,0.004,0.0045,0.0049,0.0052,0,0,0,0,0,0,0,-0.0664,-0.064,-0.0413,-0.0436,-0.0426,-0.0405,-0.0383,-0.0291,-0.0189,-0.0284,-0.0278,-0.0255,-0.0089,-0.0047,-0.0032,0.0109,0.0039,0.0048,0.0053,0.0057,0.0318,0.0319,0,0,0,0,0,0,-0.0686,-0.065,-0.0419,-0.0407,-0.0542,-0.0399,-0.0374,-0.0323,-0.019,-0.017,-0.0255,-0.0253,-0.0062,-0.0043,-0.0024,0.0075,0.0049,0.0058,0.0063,0.0317,0.0318,0.032,0,0,0,0,0,0,-0.0694,-0.0667,-0.0427,-0.0526,-0.0495,-0.0393,-0.0336,-0.0319,-0.0276,-0.0168,-0.0149,-0.0231,-0.0062,-0.0037,0.0059,0.0083,0.0062,0.0071,0.0315,0.0317,0.0319,0.0274,0,0,0,0,0,0,-0.0703,-0.067,-0.0641,-0.0527,-0.049,-0.0349,-0.0334,-0.0314,-0.0261,-0.0256,-0.014,-0.0122,-0.0061,0.0044,0.0068,0.0096,0.0078,0.0313,0.0316,0.0318,0.0274,0.0274,0.0274,0,0,0,0,0,-0.0714,-0.066,-0.064,-0.0612,-0.0452,-0.0348,-0.0327,-0.026,-0.026,-0.0229,-0.0159,-0.0125,0.0076,0.0054,0.0081,0.0112,0.0312,0.0315,0.0318,0.0273,0.0274,0.0274,0,0,0,0,0,0,-0.0772,-0.0644,-0.062,-0.0528,-0.045,-0.0336,-0.0295,-0.0261,-0.018,-0.0179,-0.0097,-0.0072,0.0018,0.0075,0.0047,0.0194,0.0197,0.0205,0.0153,0.0155,0.0155,0.014,0.0086,0,0,0,0,0,-0.0775,-0.0704,-0.0595,-0.0524,-0.0486,-0.0398,-0.035,-0.0305,-0.022,-0.0186,-0.0109,-0.0027,0.0056,0.0108,0.019,0.0282,0.0309,0.0317,0.0317,0.0317,0.0324,0.0378,0.0383,0.033,0.033,0.033,0,0,-0.0779,-0.07,-0.0659,-0.0534,-0.0468,-0.0394,-0.037,-0.0293,-0.0237,-0.0174,-0.0079,-0.002,0.0079,0.0173,0.0218,0.0223,0.0344,0.0321,0.032,0.0327,0.0381,0.0386,0.0391,0.0332,0.0331,0.0331,0,0,-0.0747,-0.0681,-0.0615,-0.055,-0.0451,-0.0393,-0.0377,-0.0268,-0.0227,-0.0131,-0.0082,-0.0013,0.0127,0.0195,0.0248,0.0304,0.0339,0.0329,0.0332,0.0383,0.0387,0.0392,0.0413,0.0419,0.0335,0.0335,0.0335,0,-0.0764,-0.0653,-0.0584,-0.051,-0.0456,-0.0397,-0.0328,-0.0268,-0.0147,-0.011,-0.0107,0.007,0.014,0.0251,0.0265,0.0305,0.0328,0.0316,0.0381,0.0386,0.0391,0.0412,0.042,0.0333,0.0333,0.0334,0.0334,0,-0.0677,-0.0601,-0.0558,-0.0445,-0.0386,-0.0315,-0.0234,-0.0182,-0.0142,-0.0084,0.0014,0.01,0.0201,0.023,0.027,0.0348,0.0348,0.0364,0.037,0.0393,0.0414,0.0423,0.0331,0.0331,0.0332,0.0332,0,0,-0.0676,-0.0527,-0.0513,-0.046,-0.0347,-0.0286,-0.0211,-0.0115,-0.0071,0.001,0.0076,0.0193,0.0209,0.0269,0.0317,0.0362,0.0403,0.0374,0.0378,0.0377,0.0495,0.0482,0.049,0.0426,0.0427,0.0429,0.0487,0,-0.0629,-0.0496,-0.0433,-0.0326,-0.0253,-0.0197,-0.0132,-0.0054,0.0002,0.0074,0.0138,0.0219,0.0234,0.027,0.0317,0.0387,0.0428,0.0384,0.049,0.0492,0.0464,0.0501,0.0488,0.0539,0.0496,0.0497,0.0498,0,-0.0557,-0.0478,-0.0365,-0.026,-0.0227,-0.017,-0.0076,-0.001,0.008,0.0118,0.0184,0.0231,0.0314,0.0311,0.0427,0.0396,0.0443,0.0484,0.0488,0.0502,0.0497,0.0517,0.0557,0.0564,0.0512,0.0511,0.051,0,-0.0567,-0.0432,-0.0346,-0.0303,-0.0179,-0.014,-0.0087,0.0002,0.0056,0.0138,0.0174,0.0266,0.0316,0.0387,0.0458,0.045,0.0567,0.0571,0.0603,0.0602,0.0627,0.0624,0.0675,0.0655,0.0654,0.0654,0.0654,0,-0.0521,-0.0453,-0.0349,-0.0297,-0.0219,-0.0146,-0.007,-0.0012,0.0066,0.0132,0.0187,0.0249,0.0338,0.0411,0.0468,0.0556,0.0578,0.0613,0.0627,0.0609,0.0604,0.0641,0.064,0.0656,0.0656,0.0656,0.0655,0,-0.0518,-0.0446,-0.0349,-0.024,-0.0211,-0.0159,-0.0064,-0.001,0.0049,0.0132,0.0156,0.025,0.0339,0.0416,0.0535,0.0573,0.0664,0.0681,0.0633,0.0641,0.0669,0.0666,0.0747,0.0762,0.0729,0.0729,0.0729,0,-0.0493,-0.044,-0.0326,-0.0279,-0.0227,-0.0151,-0.0096,-0.0022,0.0034,0.0139,0.0181,0.0274,0.0352,0.0492,0.0573,0.0664,0.0684,0.0706,0.0698,0.0678,0.0686,0.0682,0.0689,0.0706,0.0706,0.0706,0.0706,0,-0.0456,-0.0423,-0.0347,-0.0258,-0.0195,-0.0121,-0.0045,-0.0009,0.0079,0.0139,0.023,0.029,0.041,0.0502,0.0602,0.066,0.0699,0.0708,0.0721,0.0703,0.0673,0.0691,0.0634,0.0706,0.0706,0.0706,0.0706,0.0706,-0.044,-0.039,-0.0302,-0.0219,-0.0155,-0.0086,-0.003,0.0036,0.0112,0.0214,0.0254,0.0347,0.0436,0.0574,0.0632,0.0707,0.0713,0.0731,0.0736,0.074,0.0737,0.066,0.0725,0.0726,0.0726,0.0726,0.0726,0,-0.0399,-0.034,-0.0265,-0.0162,-0.0096,-0.0068,0.0018,0.0071,0.0152,0.0231,0.0306,0.0411,0.05,0.0587,0.0681,0.0725,0.0745,0.0748,0.0746,0.0759,0.0725,0.0706,0.073,0.073,0.073,0.073,0.073,0.073,-0.037,-0.0284,-0.0241,-0.0122,-0.0062,0.0027,0.0074,0.0139,0.0202,0.0316,0.039,0.0445,0.0528,0.0629,0.0713,0.0736,0.0769,0.0767,0.0795,0.0763,0.0761,0.076,0.0742,0.0773,0.0773,0.0823,0.0823,0.0824]}]]